Regional Weather Roundup
Issued by NWS

Home | Current Version | Previous Version | Graphics & Text | Print | Product List | Glossary On
Versions: 1 2 3 4 5 6 7 8 9 10 11 12 13 14 15 16 17 18 19 20 21 22 23 24 25 26 27 28 29 30 31 32 33 34 35 36 37 38 39 40 41 42 43 44 45 46 47 48 49 50
000
ASUS45 KSLC 281310
RWRUT

UTAH REGIONAL WEATHER ROUNDUP
NATIONAL WEATHER SERVICE SALT LAKE CITY UT
600 AM MST FRI NOV 28 2014

UTZ001>011-023>025-281400-

NORTHERN UTAH

CITY           SKY/WX    TMP DP  RH WIND       PRES   REMARKS
BRIGHAM CITY   CLOUDY    37  29  73 CALM      30.03F
HILL AFB       CLOUDY    44  22  42 S12       30.03F
LOGAN          CLEAR     29  26  89 E5        30.02F WCI  24
OGDEN          CLOUDY    42  25  50 S8        30.02F
PROVO AIRPORT  CLOUDY    30  27  86 CALM      30.09F
SALT LAKE CITY CLOUDY    44  24  45 SE8       30.02F
VERNAL         PTCLDY    25  19  78 W5        30.15F WCI  19
WENDOVER       PTCLDY    30  21  69 CALM      30.02F
HEBER CITY     CLOUDY    30  27  86 CALM      30.10F
WEST JORDAN    CLEAR     48  27  43 S20G26    30.04F

$$

UTZ012>022-026-027-281400-

SOUTHERN/CENTRAL UTAH

CITY           SKY/WX    TMP DP  RH WIND       PRES   REMARKS
BLANDING       MOCLDY    29  21  74 NW9       30.32S WCI  20
BRYCE CANYON   PTCLDY    17  10  74 W10       30.27F WCI   5
CEDAR CITY     PTCLDY    30  14  51 S5        30.16F WCI  25
DELTA          CLOUDY    38  20  47 S7        30.09F WCI  33
MILFORD        MOCLDY    32  14  47 S13       30.13F WCI  22
MOAB/CYNLANDS  CLEAR     22  15  75 CALM      30.20F
PRICE          MOCLDY    28  20  71 NE5       30.20F WCI  23
ST GEORGE      CLOUDY    36  16  44 CALM      30.19S
KANAB          PTCLDY    25  10  54 NE5       30.25F WCI  19

$$

REGIONAL REPORTS     COLORADO/ARIZONA

CITY           SKY/WX    TMP DP  RH WIND       PRES   REMARKS
CRAIG, CO      PTCLDY    24  20  84 SE3       30.16F
GRAND JUNCTION PTCLDY    22  19  89 E6        30.22F WCI  14
RIFLE          PTCLDY    27  23  85 CALM      30.24F
MONTROSE       PTCLDY    23  18  81 SE6       30.25S WCI  16
CORTEZ         CLEAR     19  14  81 NE6       30.27F WCI  11
PAGE, AZ       MOCLDY    39  17  41 NW5       30.22F
GRAND CANYON   MOCLDY    15   3  59 CALM      30.28S
KINGMAN        PTCLDY    39  12  33 CALM      30.12F
FLAGSTAFF      PTCLDY    25  12  58 CALM      30.29F

$$

REGIONAL REPORTS    NEVADA/IDAHO/WYOMING

CITY           SKY/WX    TMP DP  RH WIND       PRES   REMARKS
LAS VEGAS, NV  PTCLDY    43  20  39 S7        30.07S
ELY            CLOUDY    28  12  51 S3        30.16F
ELKO           CLEAR     31  24  75 NE5       30.04F WCI  26
POCATELLO, ID  CLEAR     44  25  47 VRB7      29.94F
BURLEY         CLOUDY    52  23  32 SW18G25   29.92F
EVANSTON, WY   PTCLDY    37  15  40 SW10      30.08F WCI  30
ROCK SPRINGS   MOCLDY    34  16  47 W9        30.07F WCI  27

$$



USA.gov is the U.S. government's official web portal to all federal, state and local government web resources and services.